Regional Weather Roundup
Issued by NWS

Home | Current Version | Previous Version | Text Only | Print | Product List | Glossary On
Versions: 1 2 3 4 5 6 7 8 9 10 11 12 13 14 15 16 17 18 19 20 21 22 23 24 25 26 27 28 29 30 31 32 33 34 35 36 37 38 39 40 41 42 43 44 45 46 47 48 49 50
000
ASUS44 KLIX 230711
RWRLA
LOUISIANA WEATHER ROUNDUP
NATIONAL WEATHER SERVICE NEW ORLEANS LA
200 AM CDT SAT MAY 23 2015

NOTE: "FAIR" INDICATES FEW OR NO CLOUDS BELOW 12,000 FEET WITH NO
      SIGNIFICANT WEATHER AND/OR OBSTRUCTIONS TO VISIBILITY.
      SKY/WX - SKY CONDITION AND SIGNIFICANT WEATHER.
      TMP - AIR TEMPERATURE.    DP   - DEWPOINT TEMPERATURE.
      RH  - RELATIVE HUMIDITY.  PRES - PRESSURE.
      HX  - HEAT INDEX.         WCI  - WIND CHILL INDEX.

*  THESE STATIONS ARE NOT NWS OR FAA STATIONS AND ARE NOT UNDER
   NWS QUALITY CONTROL.

LAZ040-048-061>063-065-066-069-230800-
SOUTHEAST LOUISIANA

CITY           SKY/WX    TMP DP  RH WIND       PRES   REMARKS
N.O. AUDUBON     N/A     75  69  81 MISG        N/A
N.O. INTL ARPT PTCLDY    73  67  81 SE3       30.15F
N.O. LAKEFRONT CLEAR     77  68  73 SE6       30.15F
SLIDELL        CLEAR     69  69 100 NE3       30.15F
BATON ROUGE    CLEAR     70  67  90 CALM      30.15F
BOOTHVILLE     CLEAR     75  71  87 E3        30.15F
BELLE CHASSE   CLEAR     69  66  90 CALM      30.14F
BOGALUSA*        N/A     68  64  88 CALM      30.18F
GALLIANO*      SUNNY     76  71  85 CALM      30.14F
NEW ROADS*     FAIR      70  69  97 CALM      30.15F
GONZALES*      FAIR      70  70 100 CALM      30.14F
HAMMOND*       CLEAR     72  66  83 CALM      30.17F
HOUMA*         CLEAR     71  70  94 CALM      30.14F
PORT FOURCHON* PTSUNNY   77  72  83 E9        30.14F

$$

LAZ041-044-053-054-230800-
SOUTHWEST LOUISIANA

CITY           SKY/WX    TMP DP  RH WIND       PRES   REMARKS
LAKE CHARLES   CLEAR     70  67  90 E8        30.12F
LAFAYETTE      PTCLDY    71  69  93 CALM      30.14F
PATTERSON      NOT AVBL
SALT POINT       N/A     73  71  93 CALM      30.12F
NEW IBERIA     CLEAR     74  71  91 E5        30.14F
CHENAULT AIRPK CLEAR     69  67  94 NE7       30.13F

$$

LAZ027-028-230800-
CENTRAL LOUISIANA

CITY           SKY/WX    TMP DP  RH WIND       PRES   REMARKS
FORT POLK      CLEAR     67  65  91 E6        30.13F
ALEXANDRIA INT PTCLDY    68  63  84 E3        30.13F
ALEXANDRIA     CLOUDY    68  64  87 CALM      30.15F

$$

LAZ001-002-230800-
NORTHWEST LOUISIANA

CITY           SKY/WX    TMP DP  RH WIND       PRES   REMARKS
SHREVEPORT     CLEAR     66  61  84 SE5       30.14F
BARKSDALE AFB  CLEAR     63  60  88 CALM      30.14F
DTN SHREVEPORT CLEAR     65  59  81 SE3       30.15F

$$

LAZ014-016-230800-
NORTHEAST LOUISIANA

CITY           SKY/WX    TMP DP  RH WIND       PRES   REMARKS
MONROE         CLEAR     62  60  93 CALM      30.18S
TALLULAH       CLEAR     65  58  78 SE5       30.18S

$$




USA.gov is the U.S. government's official web portal to all federal, state and local government web resources and services.